Вернуться в каталог

STARLINK-3772

АктивенСвязьVLEO
NORAD 52290·PAYLOAD·🇺🇸 United States

Запущен Apr 21, 2022 с Cape Canaveral Space Force Station

Loading…

Ближайшие Пролёты (ближайшие 24 часа)

TLE

СвежийSource: CelesTrak SupGP

Эпоха: Sep 15, 2026, 02:12 UTC

1 52290C 22041AF  26258.09215278  .00044167  00000+0  13067-2 0  2582
2 52290  53.1580 316.7608 0001351  96.3113 160.1970 15.34325923    18

Отслеживайте STARLINK-3772 в реальном времени с AllMySat

Download on the App Store